Theta_e
320 316 309 311 311 311 311 311 311 311 310 310 308 307 307 306 306 306 308 308 309 309 308 307 306 306 304 302 302 302 297 292 292 291 291 291 290 290 290 290 289 290 290
320 318 309 310 310 311 311 311 312 311 310 310 308 308 308 306 307 306 307 308 308 308 309 307 305 305 303 300 297 297 295 292 289 288 286 284 287 288 288 288 289 287 289
319 321 309 309 310 310 311 311 312 312 309 311 309 308 308 307 306 305 306 307 309 310 307 307 306 303 301 297 294 293 293 288 288 287 286 281 281 283 286 285 286 287 287
320 321 313 309 310 310 313 312 312 312 310 311 309 308 308 306 305 306 306 306 309 308 307 306 303 301 299 295 294 293 290 288 285 286 288 285 284 281 280 283 285 287 288
319 321 318 310 311 312 313 313 312 313 312 311 310 309 305 306 307 307 306 305 306 307 307 303 300 299 298 294 292 290 289 288 286 285 284 284 283 282 281 278 281 285 285
317 321 321 312 310 311 314 314 312 313 312 310 308 309 306 307 307 306 304 305 305 305 303 301 299 298 296 293 291 290 289 287 286 286 285 285 283 282 282 279 280 280 283
316 319 318 311 310 310 311 313 312 311 312 311 309 310 308 308 308 307 306 305 304 302 300 299 298 296 294 293 291 289 288 287 285 285 285 286 286 286 284 283 281 280 282
319 318 319 312 310 311 311 313 313 311 312 311 310 310 309 310 310 309 308 307 306 304 300 299 298 296 294 292 290 289 288 286 285 284 285 285 285 285 285 284 281 279 279
318 318 318 314 312 311 311 312 313 313 311 311 310 309 310 310 310 310 309 308 306 303 300 298 297 295 293 291 289 288 287 285 285 284 284 284 284 284 284 284 284 281 275
317 318 318 319 315 313 313 313 314 313 311 310 311 310 312 311 311 310 309 307 303 301 299 297 295 293 292 290 288 287 286 285 284 284 284 284 283 283 283 283 283 282 280
311 315 318 319 317 314 314 313 313 312 310 310 311 310 311 311 311 310 309 305 301 300 298 296 294 293 291 289 287 286 286 285 284 284 284 284 283 282 281 281 281 280 279
310 313 318 320 317 315 314 313 312 311 312 312 312 311 311 310 309 308 305 302 299 299 297 295 294 293 291 288 287 287 286 284 284 284 283 283 285 280 279 279 279 278 278
310 312 317 318 317 316 316 314 312 311 312 312 311 311 310 308 305 303 302 301 299 298 296 296 293 292 290 288 287 287 286 284 284 284 283 283 282 279 279 279 279 278 280
310 313 315 316 317 316 316 314 311 312 312 311 311 310 308 305 303 302 300 299 298 296 296 295 293 291 290 288 288 286 284 284 285 285 284 284 282 280 279 280 279 280 278
308 311 313 314 316 315 315 314 311 312 312 311 311 310 308 305 301 300 299 297 296 296 294 293 291 289 287 286 284 284 283 282 282 284 285 284 284 285 283 280 279 279 278
309 310 310 311 314 315 314 313 311 311 312 311 310 308 305 302 300 298 296 295 294 294 292 290 288 286 285 287 285 283 282 283 282 282 282 283 287 286 286 285 283 282 278
308 308 310 310 313 314 315 311 311 311 311 310 308 305 302 299 297 296 295 294 292 291 290 287 285 283 283 286 285 284 281 281 281 281 281 283 284 282 280 281 281 280 281
308 308 308 308 309 310 313 312 312 310 309 308 306 304 300 298 297 296 294 292 291 290 286 283 283 282 283 285 284 284 280 280 280 281 281 279 279 280 280 278 277 277 278
307 310 309 307 306 308 309 310 309 309 308 306 304 301 299 297 296 295 292 292 290 288 285 284 282 281 281 285 284 282 280 280 280 280 280 280 278 281 281 278 276 276 277
306 308 307 307 307 307 308 307 307 307 306 305 302 300 298 296 295 294 292 290 289 287 286 283 282 282 280 284 284 281 279 278 279 279 280 281 279 280 280 277 276 275 276
305 306 307 306 305 306 308 305 305 305 305 303 299 298 297 295 294 292 291 290 287 286 285 283 281 280 281 281 284 284 279 278 278 278 278 279 282 281 281 281 277 277 278
303 305 305 306 305 306 306 303 303 303 303 299 298 296 294 294 292 290 289 288 286 284 282 281 279 279 279 283 285 284 282 282 279 278 278 278 281 281 281 280 281 281 280
303 304 304 305 304 305 305 302 300 301 299 297 295 294 293 292 291 289 287 286 285 284 281 281 279 278 279 280 285 285 284 282 279 279 279 280 280 281 279 280 281 278 274
302 303 303 302 303 303 303 303 300 299 298 295 293 292 290 289 289 289 288 286 284 283 282 280 280 279 278 278 279 280 281 282 280 277 276 277 278 277 276 277 278 276 274
302 303 300 300 301 302 301 299 298 297 295 293 291 289 289 288 286 285 285 286 285 285 283 282 281 280 278 279 281 281 280 278 278 274 275 274 273 270 270 271 273 273 273
301 302 302 300 301 302 302 299 298 297 294 291 289 288 287 286 284 282 280 285 284 286 286 285 283 282 284 283 283 283 281 280 278 275 270 268 265 267 267 267 269 270 270
Wind_Speed
7 6 12 13 15 13 13 14 11 9 6 2 5 4 5 3 2 4 6 6 6 6 7 5 5 5 6 5 4 3 6 6 5 4 3 3 6 9 7 5 6 7 6
6 7 13 12 16 17 15 14 13 10 6 4 3 4 4 2 3 3 4 5 6 7 7 7 5 6 6 6 6 5 2 4 5 2 2 3 3 4 6 6 6 7 5
16 12 24 21 16 17 17 16 15 12 7 7 4 4 4 4 2 1 3 3 6 7 7 7 6 6 5 5 4 5 5 3 3 7 4 2 1 1 3 5 5 6 6
17 17 14 18 21 17 15 16 16 13 8 8 7 9 7 7 3 4 3 4 7 7 7 8 8 7 4 6 5 4 4 4 3 2 4 5 2 2 3 3 4 5 7
18 19 15 19 17 16 16 16 15 15 13 10 8 7 5 4 4 3 7 6 5 7 9 9 8 7 5 5 6 6 6 4 3 2 2 4 3 4 3 1 4 4 4
15 17 9 12 14 9 12 11 15 15 13 12 9 12 10 8 7 6 6 5 4 4 7 8 8 7 6 6 5 6 7 5 4 3 4 2 2 2 3 2 1 0 3
16 15 12 14 15 17 16 14 16 17 15 14 11 13 13 13 14 11 8 8 6 4 7 8 7 5 6 6 6 6 6 5 4 3 3 2 2 1 2 2 1 0 3
16 17 16 15 17 20 17 16 17 17 16 14 14 13 14 10 10 11 9 8 8 8 8 7 8 7 7 7 6 4 4 6 4 5 5 3 3 2 1 2 1 2 2
19 20 18 16 16 19 21 24 19 17 17 17 13 13 12 12 11 12 11 8 8 9 10 9 8 8 7 7 6 4 5 5 4 4 4 3 2 4 3 2 1 2 1
18 17 18 17 17 17 18 16 17 19 16 15 13 12 12 12 11 10 12 11 10 12 11 10 9 8 7 7 7 5 5 6 3 3 5 3 3 4 4 4 3 2 2
16 17 18 17 17 15 17 17 16 16 15 15 12 12 11 11 11 11 11 12 12 13 12 11 10 9 9 7 6 6 6 7 5 4 6 6 5 4 4 4 3 3 2
9 10 17 18 16 18 18 18 17 17 15 15 13 13 10 10 11 11 12 12 13 12 12 11 10 9 8 7 7 7 6 7 6 5 6 5 4 4 4 3 4 3 2
5 6 11 16 17 18 18 17 16 14 13 12 12 10 10 10 11 13 13 13 14 12 12 11 11 10 9 8 6 7 6 6 6 5 6 5 4 3 2 3 3 2 3
9 9 10 13 15 14 17 15 12 12 12 12 11 8 10 11 12 13 13 13 13 13 11 10 10 9 8 7 6 6 6 5 5 5 5 5 5 5 4 3 2 2 3
9 12 12 11 12 12 13 12 11 13 14 14 12 11 10 11 13 13 13 12 12 11 11 12 9 9 8 5 7 6 5 4 3 3 3 5 5 8 6 3 0 3 3
13 11 10 11 13 14 14 13 13 14 14 13 11 12 12 13 13 13 13 12 11 12 12 11 11 9 6 12 11 7 5 4 3 4 3 3 7 7 6 4 4 3 2
10 12 15 14 13 15 15 15 14 12 13 12 13 14 14 14 13 13 14 13 13 12 11 11 10 8 7 12 11 9 4 3 2 1 4 5 4 6 4 5 7 7 9
8 10 8 7 8 8 9 9 12 13 13 13 14 14 14 14 13 13 12 11 11 12 10 10 9 9 6 11 10 8 4 2 1 1 5 6 5 4 3 3 4 5 5
13 14 10 6 8 11 11 11 11 13 14 14 14 14 15 15 15 14 12 11 11 9 9 9 10 9 6 10 9 7 4 6 6 6 6 6 5 4 3 2 3 3 3
9 9 11 9 11 8 12 12 11 12 12 13 14 14 14 15 15 14 13 10 10 9 9 9 8 12 8 10 9 7 4 5 5 4 5 8 4 3 2 2 2 3 4
7 9 8 8 6 7 10 11 10 10 10 12 13 13 12 13 12 13 10 11 10 9 9 10 7 8 8 8 10 11 4 4 4 5 3 2 3 4 2 1 2 3 3
9 7 8 9 8 8 9 8 9 8 11 13 14 13 12 10 10 12 10 11 11 10 9 10 6 4 5 8 10 10 8 7 4 4 4 2 2 1 1 1 3 5 3
7 5 5 4 4 6 8 9 7 12 13 13 12 12 12 11 11 12 11 9 10 9 8 8 7 6 4 4 10 11 10 9 4 3 4 3 1 2 3 4 5 2 2
8 3 4 7 7 6 8 8 12 13 14 13 13 11 11 11 10 8 9 8 8 8 8 8 7 6 5 5 4 4 5 8 5 3 1 2 3 3 2 2 1 2 2
3 3 3 5 8 7 7 10 13 13 13 12 11 10 9 11 9 6 6 8 7 11 11 9 9 9 8 8 11 9 5 4 4 2 1 1 2 1 2 1 2 2 2
4 3 4 7 8 9 9 10 13 15 14 12 9 9 9 8 8 8 6 13 4 11 12 14 11 4 8 18 19 17 14 12 10 2 2 1 1 2 2 1 2 0 0
Wind_Direction
176 160 160 172 163 168 165 160 150 178 161 135 140 138 156 175 143 148 140 122 129 118 112 107 102 92 83 77 54 89 68 25 352 78 9 42 52 62 49 44 38 25 22
143 130 155 176 180 170 175 163 166 172 175 154 152 144 147 192 165 157 142 140 121 123 117 126 114 101 95 70 55 61 83 52 7 98 100 11 349 38 37 38 34 22 3
176 181 186 178 171 175 177 174 172 176 169 168 128 104 76 73 80 132 124 152 119 112 112 109 109 99 95 95 82 69 75 99 20 39 125 54 279 332 353 27 32 20 20
192 210 186 172 181 183 172 182 170 174 170 171 165 162 171 171 183 168 154 137 124 116 114 109 105 104 106 100 95 75 75 85 44 11 42 65 124 123 340 356 6 19 29
198 208 190 183 179 169 175 186 172 176 177 176 168 167 157 173 151 136 146 132 130 123 121 119 115 111 106 100 102 83 76 70 83 64 27 50 59 75 107 315 328 354 9
206 219 177 165 173 150 169 179 178 186 183 177 172 177 168 166 157 158 155 144 127 115 117 119 118 115 112 110 106 98 95 95 92 84 70 79 89 5 54 62 311 289 307
202 205 186 178 169 173 176 179 188 190 189 188 181 181 175 173 173 171 165 151 143 133 137 128 125 121 118 115 111 103 104 100 94 94 84 75 78 129 138 120 267 319 304
198 199 200 184 179 182 179 179 193 197 194 188 191 189 178 177 179 174 165 161 159 149 142 135 129 125 121 112 109 108 105 100 98 84 75 81 59 43 69 131 128 349 310
195 195 199 190 182 186 185 194 184 198 194 195 187 188 178 176 177 176 167 157 143 146 146 139 134 125 123 118 121 115 108 99 103 94 92 92 48 40 38 50 62 144 317
201 203 196 198 188 191 186 187 191 198 192 191 191 184 177 174 169 165 164 153 147 146 146 139 136 126 122 124 118 112 115 105 102 102 89 74 64 58 45 49 47 38 144
192 200 202 201 189 183 182 190 191 196 192 183 186 177 173 169 167 163 156 151 145 150 146 143 136 132 127 128 120 120 119 110 109 93 97 87 92 68 51 52 49 48 42
182 186 196 188 181 185 184 190 191 195 193 190 178 178 167 157 153 151 142 147 148 149 142 140 137 136 133 134 138 130 129 130 129 121 103 118 105 75 65 66 62 45 50
183 157 166 178 184 185 188 190 188 191 184 185 182 168 154 152 141 138 146 149 145 141 142 144 141 141 140 134 138 137 142 143 154 151 138 154 139 109 83 84 61 31 15
189 176 181 185 185 184 186 185 183 175 170 172 173 160 149 146 145 146 145 145 144 141 143 143 141 141 137 134 139 138 141 149 174 181 160 175 182 150 139 97 41 7 341
193 187 184 184 175 175 180 182 173 169 172 170 170 163 152 144 140 141 141 140 141 142 139 136 130 122 116 117 115 116 118 139 172 192 192 201 157 160 158 131 54 332 316
204 201 175 177 176 179 181 175 171 172 168 169 159 147 145 144 146 140 138 136 136 139 137 134 132 125 114 124 124 128 119 97 144 150 119 159 148 149 136 96 29 346 319
220 196 195 184 179 182 176 175 170 165 169 160 154 150 147 145 147 142 142 142 144 143 137 133 129 121 123 129 118 120 120 122 101 221 138 130 98 92 72 24 354 358 0
235 217 210 190 168 158 164 152 162 163 157 155 154 149 146 145 144 145 145 141 147 149 137 133 126 125 128 131 125 115 118 122 114 170 156 114 101 84 67 4 352 355 338
271 222 204 153 135 144 143 144 150 154 155 159 155 151 149 146 148 149 147 147 145 134 131 134 131 130 136 144 140 121 108 90 74 78 97 115 124 127 74 43 16 360 338
298 187 145 132 134 139 136 137 148 154 161 157 152 149 148 150 153 150 152 151 146 134 132 132 139 147 145 158 150 136 128 112 109 94 116 134 146 141 113 80 22 338 316
10 81 97 118 103 123 135 140 149 165 151 141 137 139 145 148 150 146 147 143 138 130 134 135 142 146 157 166 161 153 140 140 139 154 165 159 147 172 177 297 219 254 293
10 10 112 132 137 142 138 145 158 143 139 136 141 146 144 145 142 141 144 141 138 136 137 140 139 155 162 169 167 150 135 148 140 152 174 195 321 290 55 81 284 307 337
9 357 112 115 129 152 155 151 151 144 141 144 148 148 145 142 148 146 148 143 146 151 152 154 158 168 168 175 171 154 153 140 124 153 179 233 283 293 310 303 321 22 58
5 341 269 159 187 181 165 153 148 148 149 148 151 151 142 142 149 149 154 151 159 156 161 160 165 169 163 175 169 161 155 161 146 157 196 212 258 248 235 282 315 92 115
326 25 236 253 199 185 161 151 150 153 151 150 151 148 146 149 138 112 150 165 175 170 166 180 169 167 182 191 176 165 165 159 167 135 72 70 38 9 329 346 82 90 79
290 307 275 211 245 199 169 162 162 160 157 151 152 155 151 148 143 132 103 53 123 164 169 164 164 172 174 166 171 170 168 173 168 144 139 184 199 212 220 142 127 350 69